Time,TemperatureF,DewpointF,PressureIn,WindDirection,WindDirectionDegrees,WindSpeedMPH,WindSpeedGustMPH,Humidity,HourlyPrecipIn,Conditions,Clouds,dailyrainin,SoftwareType,DateUTC
2013-04-13 00:02:00,65.0,50.0,29.87,South,180,5.0,15.0,59,0.00,,,0.00,,2013-04-13 05:02:00,
2013-04-13 00:12:00,65.0,50.0,29.87,South,180,5.0,15.0,59,0.00,,,0.00,,2013-04-13 05:12:00,
2013-04-13 00:22:00,65.0,51.0,29.88,SSW,192,4.0,14.0,61,0.00,,,0.00,,2013-04-13 05:22:00,
2013-04-13 00:32:00,64.0,51.0,29.88,South,178,1.0,12.0,62,0.00,,,0.00,,2013-04-13 05:32:00,
2013-04-13 00:42:00,64.0,51.0,29.88,South,178,1.0,12.0,62,0.00,,,0.00,,2013-04-13 05:42:00,
2013-04-13 00:52:00,64.0,52.0,29.88,South,178,3.0,10.0,64,0.00,,,0.00,,2013-04-13 05:52:00,
2013-04-13 01:02:00,63.0,50.0,29.88,South,185,6.0,14.0,63,0.00,,,0.00,,2013-04-13 06:02:00,
2013-04-13 01:12:00,63.0,50.0,29.88,South,185,6.0,14.0,63,0.00,,,0.00,,2013-04-13 06:12:00,
2013-04-13 01:23:00,63.0,50.0,29.88,South,182,1.0,14.0,62,0.00,,,0.00,,2013-04-13 06:23:00,
2013-04-13 01:34:00,63.0,50.0,29.88,South,182,1.0,14.0,62,0.00,,,0.00,,2013-04-13 06:34:00,
2013-04-13 01:45:00,63.0,50.0,29.88,South,182,1.0,14.0,62,0.00,,,0.00,,2013-04-13 06:45:00,
2013-04-13 01:53:00,63.0,49.0,29.88,South,178,2.0,9.0,60,0.00,,,0.00,,2013-04-13 06:53:00,
2013-04-13 02:04:00,62.0,47.0,29.88,South,176,3.0,10.0,58,0.00,,,0.00,,2013-04-13 07:04:00,
2013-04-13 02:14:00,62.0,47.0,29.88,South,176,3.0,10.0,58,0.00,,,0.00,,2013-04-13 07:14:00,
2013-04-13 02:23:00,62.0,47.0,29.88,South,173,0.0,11.0,58,0.00,,,0.00,,2013-04-13 07:23:00,
2013-04-13 02:34:00,61.0,46.0,29.88,South,173,0.0,7.0,58,0.00,,,0.00,,2013-04-13 07:34:00,
2013-04-13 02:44:00,61.0,46.0,29.88,South,173,0.0,7.0,58,0.00,,,0.00,,2013-04-13 07:44:00,
2013-04-13 02:54:00,61.0,47.0,29.88,South,173,0.0,5.0,59,0.00,,,0.00,,2013-04-13 07:54:00,
2013-04-13 03:06:00,60.0,47.0,29.88,South,174,0.0,6.0,62,0.00,,,0.00,,2013-04-13 08:06:00,
2013-04-13 03:15:00,60.0,47.0,29.88,South,174,0.0,6.0,62,0.00,,,0.00,,2013-04-13 08:15:00,
2013-04-13 03:25:00,60.0,47.0,29.88,South,173,0.0,6.0,63,0.00,,,0.00,,2013-04-13 08:25:00,
2013-04-13 03:45:00,59.0,47.0,29.87,South,174,0.0,0.0,65,0.00,,,0.00,,2013-04-13 08:45:00,
2013-04-13 03:53:00,59.0,48.0,29.86,South,174,0.0,5.0,67,0.00,,,0.00,,2013-04-13 08:53:00,
2013-04-13 04:05:00,59.0,48.0,29.86,South,174,0.0,5.0,67,0.00,,,0.00,,2013-04-13 09:05:00,
2013-04-13 04:14:00,59.0,48.0,29.86,South,174,0.0,5.0,67,0.00,,,0.00,,2013-04-13 09:14:00,
2013-04-13 04:24:00,59.0,48.0,29.85,South,174,0.0,1.0,68,0.00,,,0.00,,2013-04-13 09:24:00,
2013-04-13 04:38:00,58.0,48.0,29.85,South,174,0.0,0.0,69,0.00,,,0.00,,2013-04-13 09:38:00,
2013-04-13 04:52:00,58.0,48.0,29.85,South,174,0.0,0.0,69,0.00,,,0.00,,2013-04-13 09:52:00,
2013-04-13 05:04:00,57.0,48.0,29.85,South,174,0.0,2.0,71,0.00,,,0.00,,2013-04-13 10:04:00,
2013-04-13 05:15:00,57.0,48.0,29.85,South,174,0.0,4.0,72,0.00,,,0.00,,2013-04-13 10:15:00,
2013-04-13 05:24:00,57.0,48.0,29.85,South,174,0.0,4.0,72,0.00,,,0.00,,2013-04-13 10:24:00,
2013-04-13 05:35:00,57.0,48.0,29.85,South,174,0.0,6.0,72,0.00,,,0.00,,2013-04-13 10:35:00,
2013-04-13 05:45:00,57.0,48.0,29.85,South,174,0.0,6.0,72,0.00,,,0.00,,2013-04-13 10:45:00,
2013-04-13 05:53:00,57.0,49.0,29.85,South,174,0.0,0.0,74,0.00,,,0.00,,2013-04-13 10:53:00,
2013-04-13 06:05:00,56.0,48.0,29.85,South,174,0.0,0.0,75,0.00,,,0.00,,2013-04-13 11:05:00,
2013-04-13 06:13:00,56.0,48.0,29.85,South,174,0.0,0.0,75,0.00,,,0.00,,2013-04-13 11:13:00,
2013-04-13 06:23:00,55.0,49.0,29.85,South,174,0.0,0.0,79,0.00,,,0.00,,2013-04-13 11:23:00,
2013-04-13 06:34:00,55.0,49.0,29.85,South,173,0.0,0.0,80,0.00,,,0.00,,2013-04-13 11:34:00,
2013-04-13 06:44:00,55.0,49.0,29.85,South,173,0.0,0.0,80,0.00,,,0.00,,2013-04-13 11:44:00,
2013-04-13 06:50:00,54.0,49.0,29.85,South,173,0.0,0.0,84,0.00,,,0.00,,2013-04-13 11:50:00,
2013-04-13 06:53:00,54.0,48.0,29.85,South,173,0.0,0.0,81,0.00,,,0.00,,2013-04-13 11:53:00,
2013-04-13 07:08:00,54.0,49.0,29.85,South,174,0.0,0.0,82,0.00,,,0.00,,2013-04-13 12:08:00,
2013-04-13 07:15:00,54.0,49.0,29.85,South,174,0.0,0.0,82,0.00,,,0.00,,2013-04-13 12:15:00,
2013-04-13 07:24:00,54.0,49.0,29.85,South,173,0.0,0.0,84,0.00,,,0.00,,2013-04-13 12:24:00,
2013-04-13 07:46:00,54.0,49.0,29.85,South,173,0.0,0.0,84,0.00,,,0.00,,2013-04-13 12:46:00,